STARLINK-32770 (62741 NORAD) Tracking and Keplerian Element Data

This shows tracking and keplerian element data for the satellite.

Feedback or suggestion? Click here.




ElementValue
Catalog62741
NameSTARLINK-32770
Epoch Orbit221
Epoch Day35.25001157
Epoch Year2025
RAAN253.8657
Inclination42.9996
Eccentricity0.0001457
Argument of Perigee269.3486
Mean Anonmoly99.847
Mean Motion15.64340848
Decay Rate-0.01477611
L11 62741U 25014G 25035.25001157 -.01477611 00000+0 -16774-1 0 9992
L22 62741 42.9996 253.8657 0001457 269.3486 99.8470 15.64340848 2217



Live tracking and technical data element details for STARLINK-32770 (NORAD 62741). STARLINK-32770 can be tracked NOW for your location showing map with azimuth and elevation plus other details from your city location.







IsCatalogInMostPopularTable: catalog: 62741, numindb: 190
Update: records affected: 1



GetName: 62741 STARLINK-32770

Hit Count: updated at: Mon, 17 Nov 2025 07:31:30 GMT